IRIDIUM 106 1 41917U 17003A 26105.72243319 .00000027 00000+0 26779-5 0 9992 2 41917 86.3925 114.6778 0002690 91.6904 268.4600 14.34217415484258 IRIDIUM 103 1 41918U 17003B 26105.50044149 .00000057 00000+0 13189-4 0 9992 2 41918 86.3926 114.6706 0002139 97.7862 262.3576 14.34217684484241 IRIDIUM 109 1 41919U 17003C 26105.50678549 .00000032 00000+0 42064-5 0 9998 2 41919 86.3928 114.7264 0002259 92.4861 267.6593 14.34217667484213 IRIDIUM 102 1 41920U 17003D 26105.96345246 -.00000006 00000+0 -93071-5 0 9992 2 41920 86.3928 114.4601 0002212 89.5968 270.5481 14.34217085484360 IRIDIUM 105 1 41921U 17003E 26105.92451641 .00000143 00000+0 43854-4 0 9999 2 41921 86.3926 82.9036 0002242 88.6228 271.5225 14.34398912486214 IRIDIUM 104 1 41922U 17003F 26105.76683002 -.00000010 00000+0 -10474-4 0 9997 2 41922 86.3932 114.5842 0001944 93.8338 266.3080 14.34217553484329 IRIDIUM 114 1 41923U 17003G 26105.98247953 .00000060 00000+0 14287-4 0 9992 2 41923 86.3926 114.4773 0002146 94.6299 265.5142 14.34217932484337 IRIDIUM 108 1 41924U 17003H 26105.94099997 .00000130 00000+0 39271-4 0 9990 2 41924 86.3924 82.7882 0002309 84.7473 275.3986 14.34217171486184 IRIDIUM 112 1 41925U 17003J 26105.96979448 .00000050 00000+0 10648-4 0 9999 2 41925 86.3922 114.3274 0002163 92.0415 268.1029 14.34217835484358 IRIDIUM 111 1 41926U 17003K 26105.95710952 .00000012 00000+0 -26863-5 0 9998 2 41926 86.3927 114.4020 0002144 93.1171 267.0270 14.34217468484330 IRIDIUM 113 1 42803U 17039A 26105.93707336 -.00000008 00000+0 -98011-5 0 9992 2 42803 86.4003 348.2027 0001787 86.2483 273.8917 14.34217598462261 IRIDIUM 123 1 42804U 17039B 26105.76924765 .00000015 00000+0 -18493-5 0 9994 2 42804 86.4018 19.7170 0002288 88.9350 271.2108 14.34217688461001 IRIDIUM 120 1 42805U 17039C 26105.93073230 .00000005 00000+0 -54238-5 0 9992 2 42805 86.3992 347.9961 0002177 83.4284 276.7159 14.34217437462255 IRIDIUM 115 1 42806U 17039D 26105.92881628 .00000211 00000+0 56729-4 0 9994 2 42806 86.4534 348.1176 0002445 90.1977 269.9504 14.43280326465283 IRIDIUM 118 1 42807U 17039E 26105.73119386 .00000160 00000+0 49993-4 0 9997 2 42807 86.4018 19.7312 0002138 85.3057 274.8383 14.34218462460993 IRIDIUM 117 1 42808U 17039F 26105.81998807 .00000076 00000+0 20225-4 0 9993 2 42808 86.4019 19.6525 0002262 88.9688 271.1767 14.34218223461034 IRIDIUM 126 1 42809U 17039G 26105.77558885 .00000007 00000+0 -44096-5 0 9995 2 42809 86.4015 19.7211 0001990 88.3606 271.7818 14.34216763461002 IRIDIUM 124 1 42810U 17039H 26105.86271655 .00000224 00000+0 60620-4 0 9994 2 42810 86.4470 316.4387 0002241 89.3379 270.8078 14.43292965466122 IRIDIUM 128 1 42811U 17039J 26105.76632861 .00000015 00000+0 -18107-5 0 9997 2 42811 86.3974 51.2347 0002446 84.8471 275.3004 14.34217690461037 IRIDIUM 121 1 42812U 17039K 26105.51556019 .00000164 00000+0 51353-4 0 9994 2 42812 86.4018 19.8569 0002286 83.4329 276.7127 14.34215099460843 IRIDIUM 133 1 42955U 17061A 26105.93757575 .00000072 00000+0 18741-4 0 9995 2 42955 86.3977 51.2795 0002261 86.6483 273.4971 14.34218605445855 IRIDIUM 100 1 42956U 17061B 26105.86146714 .00000031 00000+0 39997-5 0 9997 2 42956 86.3973 51.2312 0002301 87.1633 272.9826 14.34217235445845 IRIDIUM 122 1 42957U 17061C 26105.82975419 .00000090 00000+0 25095-4 0 9994 2 42957 86.3971 51.2445 0002271 88.0729 272.0727 14.34217828445842 IRIDIUM 129 1 42958U 17061D 26105.85512532 .00000147 00000+0 45488-4 0 9992 2 42958 86.3975 51.3003 0001960 82.7030 277.4389 14.34218370445866 IRIDIUM 119 1 42959U 17061E 26105.89317993 -.00000016 00000+0 -12722-4 0 9993 2 42959 86.3972 51.2802 0002039 88.2632 271.8797 14.34217148445882 IRIDIUM 107 1 42960U 17061F 26105.77268020 .00000154 00000+0 47951-4 0 9991 2 42960 86.3976 51.3512 0002388 92.0645 268.0825 14.34219658445878 IRIDIUM 132 1 42961U 17061G 26105.77901251 .00000112 00000+0 33060-4 0 9992 2 42961 86.3974 51.3284 0002293 87.2914 272.8544 14.34217113445878 IRIDIUM 136 1 42962U 17061H 26105.95026391 .00000127 00000+0 38209-4 0 9992 2 42962 86.3979 51.2632 0002241 88.6503 271.4950 14.34217402445914 IRIDIUM 139 1 42963U 17061J 26105.88683812 .00000127 00000+0 38391-4 0 9994 2 42963 86.3975 51.3507 0002366 86.4282 273.7184 14.34217589445911 IRIDIUM 125 1 42964U 17061K 26105.87415169 -.00000030 00000+0 -17636-4 0 9996 2 42964 86.3976 51.4162 0001980 100.4359 259.7060 14.34217367445926 IRIDIUM 135 1 43070U 17083A 26105.91804631 .00000137 00000+0 41847-4 0 9997 2 43070 86.4004 348.0519 0002187 85.0084 275.1361 14.34218173435226 IRIDIUM 138 1 43071U 17083B 26105.94341578 -.00000002 00000+0 -79312-5 0 9999 2 43071 86.4015 347.7273 0001702 89.8471 270.2920 14.34217770435214 IRIDIUM 116 1 43072U 17083C 26105.91170470 .00000062 00000+0 15164-4 0 9996 2 43072 86.4002 348.0413 0002431 83.3776 276.7696 14.34217463435241 IRIDIUM 130 1 43073U 17083D 26105.74045420 .00000108 00000+0 31621-4 0 9991 2 43073 86.4010 348.3819 0002408 88.7068 271.4403 14.34217562435160 IRIDIUM 151 1 43074U 17083E 26105.64531495 .00000119 00000+0 35348-4 0 9995 2 43074 86.4004 348.2089 0002227 83.7285 276.4164 14.34217884435174 IRIDIUM 134 1 43075U 17083F 26105.68337036 .00000020 00000+0 -30978-7 0 9994 2 43075 86.4002 348.1998 0002156 87.5719 272.5724 14.34217732435144 IRIDIUM 137 1 43076U 17083G 26105.90536399 .00000163 00000+0 51146-4 0 9997 2 43076 86.4008 348.1990 0002403 74.1406 286.0054 14.34218399435240 IRIDIUM 141 1 43077U 17083H 26105.68971239 -.00000011 00000+0 -11163-4 0 9998 2 43077 86.3998 348.1229 0001963 84.5911 275.5509 14.34217560435213 IRIDIUM 153 1 43078U 17083J 26105.64189057 .00000009 00000+0 -37570-5 0 9991 2 43078 86.3945 316.6401 0001863 93.0344 267.1065 14.34217828436315 IRIDIUM 131 1 43079U 17083K 26105.74679629 -.00000022 00000+0 -14996-4 0 9994 2 43079 86.4003 348.2808 0001968 83.6904 276.4516 14.34217378435152 IRIDIUM 144 1 43249U 18030A 26105.85753952 .00000153 00000+0 47713-4 0 9996 2 43249 86.3945 316.4808 0002292 86.7415 273.4043 14.34218267421205 IRIDIUM 149 1 43250U 18030B 26105.86388203 .00000219 00000+0 71306-4 0 9990 2 43250 86.3945 316.4459 0002054 87.7835 272.3596 14.34218165421222 IRIDIUM 157 1 43251U 18030C 26105.60383598 .00000161 00000+0 50346-4 0 9992 2 43251 86.3951 316.6063 0002163 89.2486 270.8957 14.34217877421169 IRIDIUM 140 1 43252U 18030D 26105.69263212 .00000009 00000+0 -37125-5 0 9995 2 43252 86.3945 316.5818 0002085 89.2289 270.9146 14.34217620421239 IRIDIUM 145 1 43253U 18030E 26105.61018015 .00000169 00000+0 53368-4 0 9999 2 43253 86.3947 316.5889 0002459 85.8348 274.3128 14.34218627421150 IRIDIUM 146 1 43254U 18030F 26105.93999250 .00000074 00000+0 19229-4 0 9997 2 43254 86.3945 316.4633 0002259 86.9464 273.1990 14.34218419421214 IRIDIUM 148 1 43255U 18030G 26105.90827882 .00000170 00000+0 53619-4 0 9994 2 43255 86.3949 316.5188 0002132 84.8409 275.3030 14.34215193421249 IRIDIUM 142 1 43256U 18030H 26105.87656230 .00000156 00000+0 48752-4 0 9994 2 43256 86.3945 316.4233 0002358 86.8105 273.3360 14.34214863421204 IRIDIUM 150 1 43257U 18030J 26105.56578080 .00000187 00000+0 59771-4 0 9994 2 43257 86.3948 316.6676 0002212 88.6677 271.4773 14.34217692421181 IRIDIUM 143 1 43258U 18030K 26105.61652218 .00000090 00000+0 25080-4 0 9996 2 43258 86.3952 316.7366 0002287 87.1856 272.9602 14.34217299421123 IRIDIUM 161 1 43478U 18047C 26105.77123681 .00000120 00000+0 29816-4 0 9997 2 43478 86.4446 114.5763 0002030 87.3312 272.8121 14.43280995416139 IRIDIUM 152 1 43479U 18047D 26105.93808150 .00000030 00000+0 36641-5 0 9992 2 43479 86.3920 114.3671 0002161 92.2633 267.8810 14.34217614413569 IRIDIUM 147 1 43480U 18047E 26105.94442366 .00000001 00000+0 -67448-5 0 9996 2 43480 86.3926 114.3685 0002266 89.5794 270.5662 14.34217568413569 IRIDIUM 110 1 43481U 18047F 26105.95076578 .00000031 00000+0 41227-5 0 9995 2 43481 86.3925 114.4560 0001904 90.2963 269.8451 14.34217702413553 IRIDIUM 162 1 43482U 18047G 26105.97292900 .00000029 00000+0 26960-5 0 9991 2 43482 86.4445 114.3837 0002324 93.7606 266.3861 14.43278528416156 IRIDIUM 160 1 43569U 18061A 26105.89660280 .00000016 00000+0 -14999-5 0 9990 2 43569 86.3924 82.8417 0002155 85.2789 274.8653 14.34217528404441 IRIDIUM 166 1 43570U 18061B 26105.85221037 .00000074 00000+0 19469-4 0 9990 2 43570 86.3922 82.8114 0002408 87.5837 272.5635 14.34213613404463 IRIDIUM 158 1 43571U 18061C 26105.89026007 .00000266 00000+0 87992-4 0 9994 2 43571 86.3927 82.8057 0002220 91.3979 268.7472 14.34217674404431 IRIDIUM 165 1 43572U 18061D 26105.91562908 .00000164 00000+0 51642-4 0 9993 2 43572 86.3925 82.8401 0002395 86.5004 273.6466 14.34216625404467 IRIDIUM 155 1 43573U 18061E 26105.94734349 .00000050 00000+0 10668-4 0 9994 2 43573 86.3923 82.6990 0002342 91.2525 268.8939 14.34217852404431 IRIDIUM 154 1 43574U 18061F 26105.85854816 .00000209 00000+0 67418-4 0 9998 2 43574 86.3924 82.8667 0002424 85.6951 274.4522 14.34218028404478 IRIDIUM 163 1 43575U 18061G 26105.90927994 .00000138 00000+0 42043-4 0 9991 2 43575 86.3923 82.7627 0002175 89.8610 270.2835 14.34214763404455 IRIDIUM 156 1 43576U 18061H 26105.95368552 .00000010 00000+0 -35204-5 0 9998 2 43576 86.3924 82.7514 0002367 90.6498 269.4969 14.34217430404451 IRIDIUM 164 1 43577U 18061J 26105.93465850 .00000032 00000+0 43327-5 0 9994 2 43577 86.3924 82.7987 0002339 83.8517 276.2945 14.34217596404498 IRIDIUM 159 1 43578U 18061K 26105.90294537 .00000134 00000+0 40726-4 0 9996 2 43578 86.3923 82.7500 0002159 86.8716 273.2727 14.34216482404457 IRIDIUM 180 1 43922U 19002A 26105.90244183 .00000014 00000+0 -20119-5 0 9990 2 43922 86.4021 19.6224 0002087 82.8316 277.3117 14.34217608380063 IRIDIUM 176 1 43923U 19002B 26105.76463478 .00000470 00000+0 70701-4 0 9991 2 43923 86.6138 19.6321 0002603 83.5402 276.6112 14.72255773390066 IRIDIUM 168 1 43924U 19002C 26105.82633081 .00000060 00000+0 14218-4 0 9994 2 43924 86.4020 19.7295 0002157 86.2344 273.9099 14.34217710380032 IRIDIUM 173 1 43925U 19002D 26105.81364421 .00000147 00000+0 45550-4 0 9992 2 43925 86.4017 19.6263 0002132 87.9084 272.2356 14.34218850380017 IRIDIUM 169 1 43926U 19002E 26105.86072314 .00000175 00000+0 50638-4 0 9999 2 43926 86.4230 51.2377 0002548 100.2552 259.8934 14.38608554381262 IRIDIUM 172 1 43927U 19002F 26105.73753436 .00000029 00000+0 31242-5 0 9996 2 43927 86.4016 19.6657 0002136 82.4907 277.6531 14.34217627380018 IRIDIUM 175 1 43928U 19002G 26105.61453894 .00000216 00000+0 57876-4 0 9997 2 43928 86.4500 316.6962 0005332 77.8425 282.3373 14.43589167389950 IRIDIUM 171 1 43929U 19002H 26105.50920162 .00000137 00000+0 41764-4 0 9994 2 43929 86.4028 20.0603 0002390 85.2249 274.9219 14.34218116379972 IRIDIUM 170 1 43930U 19002J 26105.83878477 .00000541 00000+0 81829-4 0 9998 2 43930 86.6139 19.6040 0002335 83.0231 277.1251 14.72252747390080 IRIDIUM 167 1 43931U 19002K 26105.85170139 .00000072 00000+0 18525-4 0 9993 2 43931 86.4018 19.6400 0002538 87.3263 272.8223 14.34217994380029 IRIDIUM 181 1 56726U 23068S 26105.64066994 .00000161 00000+0 41776-4 0 9999 2 56726 86.4461 82.9356 0002309 79.7419 280.4042 14.43311670153415 IRIDIUM 177 1 56727U 23068T 26105.65597237 .00000602 00000+0 75729-4 0 9995 2 56727 86.2009 358.4881 0002163 89.6777 270.4692 14.80218203157111 IRIDIUM 174 1 56728U 23068U 26105.82642340 .00000484 00000+0 72797-4 0 9991 2 56728 86.6146 19.7503 0002145 85.8161 274.3301 14.72261529156840 IRIDIUM 178 1 56729U 23068V 26105.78021528 .00000641 00000+0 80899-4 0 9993 2 56729 86.6546 51.4280 0002698 81.9073 278.2455 14.80235364157135 IRIDIUM 179 1 56730U 23068W 26105.36922666 .00000642 00000+0 80985-4 0 9999 2 56730 86.6768 60.3954 0002961 88.5407 271.6154 14.80234559157078